Lapse_Rate
7.3 7.4 7.5 7.6 7.6 7.4 7.1 7.1 7.0 7.1 7.1 6.9 6.8 6.8 6.8 6.7 6.9 6.4 6.3 6.3 6.2 6.1 6.3 6.2 6.2 6.3 6.3 6.3 6.4 6.4 6.3 6.0 5.9 5.9 6.0 6.0 5.8 5.8 5.7 5.6 5.6 5.5 5.5 5.4 5.4 5.5 5.4 5.4 5.4
7.4 7.5 7.6 7.7 7.6 7.2 6.9 6.9 6.9 7.0 6.9 6.7 6.7 6.9 7.0 6.9 6.7 6.6 6.5 6.4 6.2 6.0 6.2 6.4 6.5 6.5 6.4 6.3 6.2 6.2 6.1 6.0 6.0 6.0 5.8 5.8 5.9 5.9 5.8 5.7 5.7 5.6 5.5 5.5 5.5 5.4 5.4 5.5 5.4
7.2 7.4 7.4 7.3 7.1 6.9 6.9 6.8 6.8 6.9 6.8 6.8 6.7 6.7 6.7 6.7 6.6 6.6 6.6 6.5 6.4 6.1 6.2 6.3 6.2 6.3 6.2 6.2 6.1 6.1 6.0 6.0 6.0 6.0 6.0 6.1 6.0 6.0 5.9 5.8 5.7 5.7 5.6 5.5 5.5 5.4 5.4 5.5 5.4
7.3 7.3 7.2 7.0 7.0 6.8 6.9 6.7 6.7 6.8 6.9 7.0 7.0 6.9 6.9 6.7 6.6 6.6 6.7 6.3 6.3 6.2 6.2 6.2 6.1 6.2 6.2 6.2 6.2 6.2 6.1 6.1 6.0 5.8 5.8 5.8 5.8 5.8 5.7 5.8 5.8 5.7 5.7 5.7 5.5 5.4 5.3 5.3 5.4
7.3 7.2 7.2 7.0 6.9 6.7 6.7 6.7 6.8 6.8 6.9 7.1 7.1 7.1 7.1 6.9 6.7 6.7 6.6 6.3 6.3 6.2 6.2 6.2 6.2 6.1 6.1 5.9 6.0 5.8 5.9 6.0 6.0 6.0 6.0 5.9 5.7 5.8 5.7 5.6 5.6 5.6 5.6 5.6 5.6 5.5 5.4 5.3 5.4
7.2 7.2 6.9 6.9 6.8 6.7 6.7 6.7 6.7 6.7 6.7 6.9 6.9 6.9 6.9 6.7 6.5 6.5 6.2 6.1 6.2 6.1 6.0 6.0 6.0 5.9 5.8 5.7 5.8 5.9 5.8 5.7 5.8 6.0 6.0 6.0 5.7 5.7 5.7 5.7 5.7 5.5 5.5 5.6 5.6 5.5 5.4 5.3 5.3
7.2 7.2 6.9 6.7 6.7 6.6 6.6 6.5 6.5 6.6 6.6 6.7 6.6 6.5 6.4 6.3 6.2 6.1 5.8 6.1 6.0 5.9 5.8 5.9 5.8 5.6 5.6 5.3 5.5 5.5 5.9 5.6 5.8 5.7 5.9 5.8 6.0 5.9 5.8 5.8 5.9 5.8 5.6 5.7 5.8 5.7 5.6 5.3 5.3
6.9 6.9 6.6 6.3 6.3 6.3 6.4 6.5 6.5 6.5 6.5 6.4 6.3 6.3 6.3 6.2 6.1 5.8 5.5 5.6 5.8 6.1 5.9 5.5 5.3 5.5 5.4 5.4 5.4 5.6 5.4 5.6 5.6 5.6 5.8 5.8 5.8 6.0 6.0 6.0 5.9 5.7 5.7 5.9 5.8 5.8 5.7 5.6 5.4
6.7 6.6 6.3 6.3 6.2 6.0 6.1 6.3 6.4 6.4 6.3 6.2 6.1 6.1 6.0 5.9 5.9 5.8 5.7 5.7 5.7 5.8 5.5 5.5 5.3 5.1 5.0 5.1 5.3 5.2 5.4 5.4 5.5 5.6 5.7 5.7 5.8 5.8 5.9 6.0 6.2 6.2 6.0 5.8 5.8 5.9 5.9 5.7 5.7
6.6 6.4 6.2 5.9 6.2 6.5 6.5 6.6 6.4 6.3 6.0 5.8 5.7 5.6 5.6 5.6 5.6 5.5 5.3 5.1 4.9 4.8 4.9 5.0 5.1 5.1 5.2 5.2 5.1 5.1 5.2 5.3 5.3 5.5 5.6 5.6 5.7 5.7 5.8 5.8 5.8 5.9 6.0 6.0 6.0 6.0 5.9 5.9 5.8
6.4 6.5 6.0 6.1 6.1 6.1 6.0 6.1 6.2 6.1 6.0 5.9 5.7 5.6 5.5 5.5 5.4 5.4 5.2 5.1 5.0 5.0 5.0 5.1 5.1 5.0 5.1 5.0 5.0 5.0 4.9 5.0 4.9 4.9 5.0 5.1 5.0 5.2 5.4 5.5 5.5 5.6 5.7 5.9 5.8 5.9 6.0 6.0 5.9
6.7 6.2 5.7 5.8 6.2 6.5 6.5 6.8 6.7 6.6 6.3 6.0 5.7 5.5 5.4 5.3 5.3 5.2 5.2 5.1 5.1 5.0 4.9 4.9 4.8 4.7 4.7 4.7 4.7 4.7 4.6 4.8 4.9 4.7 4.7 4.6 4.5 4.5 4.6 4.9 5.1 5.0 5.0 5.2 5.4 5.6 5.7 5.8 5.8
6.0 6.1 6.2 6.5 6.7 7.2 7.0 6.9 6.8 6.3 5.6 5.0 4.6 4.6 4.5 4.5 4.4 4.4 4.4 4.5 4.5 4.4 4.2 4.0 3.9 4.1 4.1 3.9 4.0 4.1 4.0 4.2 4.3 4.4 4.5 4.6 4.5 4.4 4.5 4.6 4.6 4.8 4.8 4.7 4.6 4.8 5.2 5.3 5.5
6.9 6.7 6.6 6.6 6.3 6.4 6.6 6.2 5.9 5.1 4.9 4.7 4.4 4.1 4.0 4.0 4.1 4.0 3.8 3.9 3.9 4.1 3.8 3.6 3.4 3.3 3.4 3.6 3.7 3.8 4.0 4.2 4.4 4.6 4.7 4.9 5.0 4.9 4.9 4.8 4.9 4.8 4.8 4.8 4.7 4.6 4.7 4.7 4.9
6.9 6.7 6.7 6.7 6.6 6.3 6.3 5.8 5.5 4.9 4.6 4.4 3.6 3.4 3.4 3.4 3.5 3.5 3.5 3.5 3.5 3.5 3.5 3.5 3.5 3.5 3.5 3.7 3.8 3.9 4.1 4.3 4.6 4.7 5.1 5.4 5.8 5.8 5.4 5.2 5.2 5.1 4.9 4.9 5.1 5.1 5.0 4.9 4.8
6.7 6.6 6.5 6.6 6.6 6.5 6.1 5.1 4.8 4.5 3.9 3.4 3.1 3.3 3.2 3.0 2.7 2.9 3.0 3.3 3.4 3.4 3.4 3.5 3.6 3.9 4.1 4.1 4.2 4.2 4.3 4.4 4.3 4.6 4.9 5.0 5.2 5.3 5.5 5.5 5.2 5.3 5.4 5.1 5.3 5.1 5.2 5.1 5.3
6.5 6.4 6.2 5.7 6.0 6.1 5.8 4.7 4.0 3.6 3.3 3.1 2.9 2.8 2.9 2.9 3.0 3.2 3.5 3.5 3.8 4.2 4.4 4.6 4.9 5.2 5.4 5.3 5.0 4.7 4.7 4.9 5.0 4.8 4.9 4.8 4.7 5.0 5.0 4.8 4.6 4.5 4.4 4.6 4.4 4.4 4.6 4.9 4.8
5.9 5.8 5.8 5.3 5.2 5.1 5.0 4.2 3.6 3.3 2.7 2.5 2.5 2.5 2.4 2.7 3.0 3.5 4.1 4.6 5.1 5.9 6.3 6.4 6.4 6.3 5.9 5.4 5.1 5.2 5.2 5.2 5.3 5.4 5.4 5.0 4.8 4.8 4.7 4.4 4.3 4.3 4.1 4.1 4.0 3.7 3.6 3.8 3.9
5.5 5.6 5.4 5.2 4.8 4.2 3.6 3.2 2.8 2.5 1.9 2.1 2.4 2.5 2.7 3.3 3.9 4.5 5.3 6.0 6.4 6.3 6.0 5.5 5.3 5.5 5.5 5.6 5.7 5.7 5.3 5.0 5.6 5.9 5.9 5.7 5.3 4.8 4.6 4.2 4.1 4.0 3.8 3.6 3.4 3.3 3.5 3.6 3.7
5.7 5.7 5.4 4.9 4.8 4.4 4.3 3.0 2.5 2.4 2.3 2.4 2.3 2.7 3.7 4.0 4.7 5.4 5.9 5.8 5.8 6.1 6.3 6.5 6.4 6.4 6.2 6.1 5.9 5.9 6.0 6.0 6.1 6.4 6.4 6.5 6.3 5.8 5.5 5.4 5.1 4.7 4.5 4.2 4.0 3.6 3.4 3.3 3.2
5.9 5.4 4.8 4.9 4.5 4.3 4.0 2.7 2.4 2.0 2.1 2.3 2.9 3.7 4.4 4.7 5.2 5.9 6.1 6.6 6.9 6.8 6.8 6.9 6.9 6.9 6.8 6.8 6.6 6.7 6.8 6.6 6.6 6.7 6.8 7.1 7.4 7.5 7.5 7.3 7.2 6.8 6.4 5.6 5.2 4.8 4.2 3.5 3.2
5.5 4.9 5.1 5.0 4.2 4.2 3.6 3.4 1.9 2.2 2.5 3.1 4.1 4.7 5.2 5.8 6.0 6.4 7.2 7.2 7.2 7.1 7.2 7.1 7.1 7.3 7.3 7.2 7.2 7.4 7.4 7.5 7.8 7.6 7.9 8.1 8.0 7.9 8.0 8.0 7.9 7.9 7.8 7.7 7.4 6.6 5.8 4.7 3.8
5.0 5.0 5.1 4.6 4.2 3.7 3.0 3.0 1.5 2.6 3.2 3.8 4.3 4.5 5.2 6.0 6.9 7.2 7.3 7.1 7.2 7.1 7.1 7.1 7.1 7.2 7.4 7.4 7.5 7.5 7.6 7.7 7.8 8.0 8.1 8.1 8.2 8.2 8.4 8.4 8.4 8.5 8.2 8.0 8.0 7.5 7.2 6.7 5.7
4.4 4.7 5.0 4.0 3.9 3.2 3.1 3.3 1.7 2.0 2.1 3.5 4.5 4.9 6.1 7.0 7.5 7.5 7.6 7.5 7.3 7.3 7.2 7.0 6.9 7.0 7.0 7.0 7.1 7.2 7.2 7.3 7.4 7.6 7.6 7.8 8.0 8.2 8.1 8.0 8.0 8.0 7.9 7.9 7.7 7.5 7.2 6.9 6.3
4.2 4.1 3.6 3.9 3.8 4.3 3.0 3.8 3.2 2.7 3.4 4.3 4.9 6.5 7.2 7.4 7.3 7.2 7.1 7.0 7.1 7.1 6.8 6.7 6.7 7.0 6.8 6.7 6.7 6.6 6.6 6.7 6.8 7.0 7.1 7.3 7.5 7.6 7.8 7.7 7.6 7.6 7.6 7.6 7.6 7.4 7.1 6.9 6.8
3.3 2.9 3.6 3.6 3.9 3.3 2.7 3.5 3.5 3.4 4.1 5.5 6.3 6.9 7.2 7.2 7.1 6.9 6.9 7.0 7.0 7.0 7.2 7.1 7.0 7.1 7.0 6.6 6.5 6.6 6.5 6.4 6.5 6.6 6.7 6.7 6.8 6.9 6.9 7.0 7.2 7.2 7.0 6.9 7.0 7.0 6.9 6.8 6.8
3.3 2.7 2.4 2.2 2.1 1.7 2.8 3.9 4.1 3.7 4.6 5.1 6.4 7.0 7.3 7.1 7.0 7.0 7.1 7.0 6.8 6.9 7.1 6.9 6.9 7.0 6.9 6.4 6.4 6.5 6.6 6.6 6.6 6.6 6.5 6.2 6.2 6.3 6.4 6.6 6.6 6.5 6.5 6.5 6.5 6.7 6.6 6.6 6.6
3.3 3.0 2.8 2.5 1.8 2.8 2.6 4.2 3.9 3.9 3.9 5.7 6.5 6.7 6.8 6.9 7.0 7.0 6.9 6.9 7.0 7.0 6.7 6.6 6.3 5.9 5.9 5.9 6.1 6.3 6.4 6.3 6.2 6.2 6.2 6.0 5.9 5.9 5.9 6.0 5.9 6.2 6.3 6.3 6.2 6.0 6.2 6.4 6.5
3.0 2.4 2.1 1.9 2.2 2.8 2.5 4.5 4.0 4.0 5.6 5.8 6.4 6.7 6.8 6.9 6.9 6.8 6.6 6.7 6.7 6.3 5.9 5.7 5.4 5.2 5.3 5.3 5.4 5.6 5.5 5.3 5.3 5.5 5.6 5.5 5.7 5.8 5.7 5.8 5.9 6.1 6.0 5.8 5.8 5.8 6.0 6.3 6.6
2.7 2.1 1.4 1.9 2.3 2.6 2.3 3.4 4.4 4.9 6.0 6.1 6.3 6.7 6.8 7.0 6.8 6.3 6.1 5.9 5.9 5.3 5.2 5.3 5.1 5.2 5.4 5.5 5.5 5.3 5.2 5.0 5.0 5.1 5.2 5.0 5.1 5.0 5.4 5.8 5.9 6.1 6.2 6.3 6.3 6.2 6.4 7.0 7.4
Wind_Speed
3 1 1 3 3 4 2 1 1 2 3 5 6 11 13 11 5 5 7 18 13 12 8 8 10 10 11 9 8 6 6 5 5 4 4 4 5 5 3 3 2 3 3 2 4 4 3 3 4
3 1 3 2 4 3 0 3 3 1 2 1 4 4 8 6 7 3 8 19 16 19 20 19 18 16 15 13 11 9 7 7 6 5 6 5 6 6 5 4 5 6 6 6 5 5 5 5 5
2 4 2 4 3 3 2 2 3 3 2 1 4 9 4 8 8 6 12 12 17 21 20 23 24 25 25 25 22 16 15 14 11 9 8 8 10 10 9 8 7 6 8 9 9 9 8 7 7
2 3 3 4 6 1 1 3 4 2 3 8 7 9 7 10 4 10 12 14 17 20 22 24 26 25 25 25 21 20 20 19 20 20 13 12 10 10 10 10 10 11 11 10 12 12 11 11 10
3 3 4 4 4 2 3 3 2 2 2 7 3 5 5 9 11 12 11 15 15 16 18 23 26 25 25 25 24 22 20 20 20 18 16 16 14 13 13 9 6 9 12 13 12 13 14 13 13
3 2 4 3 2 2 2 6 3 5 7 5 6 5 5 8 12 12 10 12 15 13 19 20 26 25 25 24 24 22 21 23 22 21 20 18 17 18 17 17 17 17 15 12 11 14 16 16 17
5 4 3 2 3 4 6 8 5 4 7 7 4 4 4 10 9 10 9 10 13 17 16 18 16 20 21 26 24 23 22 22 22 21 21 19 19 18 18 19 19 16 17 17 14 13 13 16 19
4 4 4 5 3 3 8 3 1 8 4 3 8 5 5 6 9 9 9 10 12 15 15 15 17 13 17 16 20 19 20 21 21 21 20 19 18 18 19 19 19 18 18 17 17 18 16 16 15
2 5 4 3 4 4 6 5 5 6 8 8 9 11 7 9 9 11 12 14 12 12 13 17 17 16 14 15 13 15 17 17 16 17 18 15 15 16 15 16 19 20 19 19 19 19 18 17 14
5 4 5 5 1 2 3 8 5 4 10 11 14 15 14 14 13 15 14 13 14 14 13 15 16 15 14 13 12 11 12 13 14 14 14 13 13 13 13 15 17 17 18 17 19 19 18 16 14
5 4 6 8 6 7 6 20 11 5 14 12 9 12 13 14 13 12 12 9 9 10 11 11 14 14 14 12 11 9 8 8 8 10 11 10 10 10 11 11 13 13 16 14 15 15 13 15 14
7 8 5 8 11 6 6 9 18 19 7 10 12 9 11 13 12 11 11 11 11 11 12 13 16 13 12 9 7 8 7 6 6 7 7 7 7 7 8 7 8 10 11 13 13 11 13 14 14
7 5 9 6 12 15 21 19 13 18 13 14 14 17 17 18 19 18 17 17 17 17 15 14 15 13 14 14 11 8 8 7 5 5 5 5 6 5 6 6 6 6 7 9 10 11 11 10 12
5 9 6 10 11 12 18 13 5 12 13 21 21 20 20 19 19 19 19 18 18 17 17 15 17 19 18 14 15 11 9 11 12 10 7 5 4 5 6 6 6 6 6 7 7 7 8 8 10
3 3 4 14 13 4 3 20 12 11 16 21 20 18 18 19 20 19 18 19 18 16 16 17 16 20 17 16 13 9 10 10 10 10 11 11 9 8 8 6 4 6 7 7 7 8 8 7 9
5 4 3 5 11 6 3 5 14 13 18 19 19 18 19 22 21 21 21 19 19 19 19 18 19 20 20 18 16 12 10 10 10 10 11 15 12 11 10 6 7 8 7 5 4 5 6 6 7
7 1 2 1 10 1 8 9 8 11 16 17 18 19 19 21 23 21 21 20 19 18 18 18 18 18 18 22 20 17 16 10 10 9 9 12 12 13 11 8 10 12 7 5 5 6 5 6 7
4 3 3 3 5 11 17 15 9 11 16 16 17 18 19 20 21 19 20 21 20 19 19 20 17 19 18 15 15 13 11 11 10 10 11 13 11 15 14 11 11 12 8 8 8 8 7 7 7
3 2 3 1 4 6 10 11 9 10 16 18 20 20 20 21 21 20 21 21 20 19 19 19 18 19 13 10 11 11 11 10 10 11 14 15 13 14 12 7 9 8 8 9 9 8 9 9 6
1 1 3 3 3 4 10 10 8 11 13 14 18 20 20 22 23 22 22 21 19 19 20 20 19 19 15 10 10 9 9 10 10 12 16 19 15 14 12 10 9 9 8 10 10 9 7 8 6
3 2 5 9 3 4 13 5 1 5 11 17 17 16 19 20 23 24 24 23 21 21 21 19 19 19 17 17 10 10 9 7 8 10 10 12 17 17 13 12 9 9 8 9 11 10 11 10 9
5 2 10 10 3 1 3 2 4 9 13 19 20 21 22 24 24 23 23 21 22 20 18 20 19 20 17 18 13 17 12 12 11 11 10 10 15 15 16 13 11 11 9 11 11 10 10 9 10
6 17 6 1 3 3 3 3 5 5 19 22 22 21 22 22 22 23 22 21 22 20 19 18 19 18 18 17 16 13 16 12 11 11 15 14 12 13 15 13 14 13 9 12 13 12 11 9 9
14 5 2 1 1 2 4 4 4 8 16 20 19 23 23 23 25 24 24 23 21 20 20 20 22 21 20 18 18 17 18 18 14 15 12 11 10 10 13 14 13 13 12 12 11 13 13 11 11
11 7 4 3 4 4 4 3 2 8 15 16 18 23 24 22 22 23 24 25 25 25 24 21 22 24 22 22 21 20 19 19 19 18 13 15 11 10 12 14 13 11 13 13 12 12 12 12 11
5 5 3 5 6 8 8 2 2 8 16 23 22 22 23 24 22 23 24 24 25 27 27 25 24 24 23 22 22 19 20 14 14 16 14 13 13 13 15 14 15 16 16 14 13 11 10 12 11
5 7 2 4 2 3 5 1 4 14 26 25 27 28 28 28 27 27 28 25 25 25 26 25 25 25 24 23 20 20 19 18 17 19 17 13 15 13 16 17 16 16 16 15 13 11 13 13 12
8 3 3 5 7 7 3 5 6 19 25 25 28 30 29 28 28 28 26 27 26 25 24 25 24 25 24 23 20 18 20 19 18 18 19 17 16 16 16 16 16 16 16 16 14 12 14 13 11
5 4 5 3 1 3 5 6 2 16 21 21 26 28 27 28 28 27 27 26 26 25 24 24 24 23 23 21 22 20 19 20 18 16 17 16 17 15 16 16 15 15 15 16 15 14 14 14 14
4 3 2 3 3 1 0 6 3 20 20 19 26 26 28 28 28 28 27 27 26 26 25 24 24 23 22 20 20 19 19 18 17 16 17 16 16 15 14 15 12 15 14 14 16 15 14 13 14
Wind_Direction
345 15 91 43 69 68 61 9 317 27 74 40 60 82 87 49 28 81 344 14 38 46 59 40 27 29 30 37 22 17 3 6 2 359 350 346 339 355 296 293 276 240 242 232 189 186 205 199 193
344 92 53 85 82 80 343 317 31 331 137 166 68 66 44 66 22 31 11 350 31 52 54 52 50 44 40 34 26 18 7 3 357 356 340 331 325 327 328 304 282 273 255 247 240 226 219 228 224
114 38 75 78 89 109 160 2 15 55 25 320 103 53 40 346 6 7 354 1 41 42 44 53 58 54 48 47 46 45 40 36 25 3 351 345 337 330 319 308 299 284 267 259 244 239 239 234 236
57 24 54 68 86 50 299 337 342 15 52 35 105 77 89 38 14 17 0 29 47 37 39 47 51 53 51 47 41 40 48 45 35 29 36 31 15 356 336 323 313 306 297 277 270 253 242 242 239
39 54 60 78 64 72 22 345 341 63 50 23 8 104 69 47 46 33 28 32 46 42 38 47 49 49 48 47 47 40 44 47 44 42 34 31 35 31 22 17 353 345 318 301 283 266 261 256 248
52 83 69 85 68 17 23 7 15 51 30 26 64 72 68 51 43 33 23 37 36 47 41 43 46 43 44 44 48 39 36 39 42 37 37 35 35 31 26 22 20 14 9 351 319 299 281 266 257
96 71 96 88 19 36 357 343 40 31 31 24 352 74 93 53 45 46 40 42 44 49 46 48 46 43 38 46 37 40 31 33 36 36 33 30 34 33 25 22 20 18 11 2 354 352 335 284 267
87 86 53 29 15 57 348 44 174 45 65 17 348 70 81 52 42 42 43 42 44 41 41 38 38 34 43 43 34 36 41 32 30 32 31 26 27 28 22 17 16 14 17 9 2 355 344 340 315
116 66 65 30 26 335 353 37 36 70 72 50 36 53 53 55 52 54 46 41 37 33 29 26 27 26 25 32 23 29 29 31 29 29 25 24 22 20 18 17 16 12 11 7 3 358 352 345 337
65 80 61 351 2 324 28 46 2 52 56 57 54 49 50 47 44 44 35 28 23 17 11 13 12 12 15 17 15 23 24 22 21 21 21 20 20 19 15 13 12 10 7 2 359 357 354 351 341
34 94 149 38 358 15 40 61 25 23 46 29 69 54 43 47 43 39 32 25 11 1 5 3 1 359 2 358 356 4 8 17 17 18 15 13 14 15 17 12 8 3 3 359 353 351 352 343 339
100 43 75 47 37 46 46 89 65 62 81 65 65 69 56 48 39 25 15 8 4 2 359 353 354 351 346 340 341 329 341 354 6 359 9 11 7 5 9 17 11 8 1 355 352 345 340 335 331
75 112 67 104 95 87 72 70 77 52 50 59 57 49 39 31 18 14 10 8 2 356 346 344 340 343 341 333 325 317 323 329 333 337 348 359 352 342 344 353 357 1 358 356 346 342 339 331 327
116 94 79 37 56 61 77 41 81 26 40 45 38 33 31 27 19 16 10 2 357 350 345 337 338 337 339 335 329 315 317 322 326 323 319 301 288 302 316 326 335 338 346 342 336 336 333 326 322
115 85 64 21 356 68 167 38 40 23 49 48 38 33 27 20 16 10 2 355 354 350 346 343 336 327 325 319 314 302 286 288 286 287 294 296 297 297 296 296 302 310 317 319 323 323 324 324 322
46 61 32 19 2 5 122 63 34 39 56 45 35 28 23 19 12 6 359 351 346 345 344 336 337 335 330 317 311 299 280 275 276 282 283 282 282 287 284 282 281 285 280 274 284 291 307 314 318
16 320 9 54 26 183 64 126 64 49 53 46 32 22 16 8 6 359 351 346 338 337 335 336 333 334 330 326 316 305 293 272 271 277 282 284 277 281 277 276 282 284 280 279 276 284 286 303 311
317 338 309 286 24 71 96 114 90 61 53 42 25 14 7 358 351 340 338 338 334 332 332 333 332 327 329 327 325 315 298 282 284 281 283 289 286 287 291 289 289 288 277 279 282 286 286 281 289
256 239 296 24 34 74 99 109 75 54 41 27 17 8 358 351 342 336 334 333 330 328 326 325 322 321 323 323 328 326 314 302 298 292 285 277 275 277 273 271 274 274 270 273 274 283 284 282 274
259 241 350 313 45 69 127 107 85 52 40 23 10 359 347 344 340 339 334 332 328 321 321 318 315 314 316 314 310 301 297 292 288 291 289 282 267 257 248 247 250 254 262 266 265 262 268 264 259
8 53 344 300 327 58 128 165 338 4 14 13 8 353 352 344 341 340 338 335 330 326 322 317 309 308 307 305 299 303 296 282 279 278 277 277 285 282 267 268 267 274 273 274 274 271 261 272 263
331 313 316 294 220 214 186 297 38 353 360 0 359 355 348 348 338 334 328 325 323 317 313 311 307 304 304 303 296 299 293 291 288 284 277 275 275 278 276 265 264 263 270 268 266 265 255 254 260
274 313 301 263 188 135 163 278 11 340 358 352 353 348 340 333 331 327 326 323 321 321 317 313 308 303 299 294 296 292 293 288 291 288 289 285 283 278 276 270 267 263 259 259 255 256 242 238 246
306 332 78 78 163 163 123 4 58 21 346 339 345 346 340 336 333 330 326 323 321 319 316 314 311 307 305 298 296 289 283 286 288 285 284 282 278 276 269 268 266 266 262 256 250 252 245 241 238
15 353 338 331 346 358 13 346 118 18 353 338 335 342 340 333 328 324 323 322 320 319 316 311 309 304 302 301 298 292 285 280 278 278 278 279 279 272 264 261 261 263 259 256 252 252 248 244 237
22 29 51 312 312 318 344 321 71 21 337 355 343 335 333 333 331 325 321 319 316 314 313 314 310 306 306 301 296 292 287 282 278 274 272 269 270 270 267 260 253 260 260 254 249 251 249 247 242
353 35 348 280 8 304 324 6 118 348 358 346 338 337 337 333 329 325 324 321 317 316 316 316 313 312 309 306 302 298 293 284 284 276 273 269 265 265 265 261 257 257 256 253 249 248 250 246 243
72 336 4 24 347 315 357 294 333 354 350 340 338 332 329 327 327 325 324 322 320 320 319 317 315 310 310 306 305 298 294 290 288 285 277 273 268 268 266 260 258 258 254 253 253 248 244 243 241
6 32 42 116 58 291 315 320 163 345 345 329 328 326 325 325 325 324 322 322 322 322 323 319 315 314 309 306 303 299 295 291 287 285 283 279 276 274 270 263 258 258 248 252 252 247 245 238 241
69 84 72 96 306 63 223 277 272 342 329 327 325 324 325 325 324 322 324 324 326 326 322 321 319 315 312 307 301 296 292 288 285 281 279 274 273 266 260 259 252 248 250 247 244 247 241 234 242